Time,TemperatureF,DewpointF,PressureIn,WindDirection,WindDirectionDegrees,WindSpeedMPH,WindSpeedGustMPH,Humidity,HourlyPrecipIn,Conditions,Clouds,dailyrainin,SoftwareType,DateUTC
2013-07-24 00:00:00,75.0,73.5,29.96,West,259,0.0,27.0,95,0.00,,---,0.00,VWS V12.08,2013-07-24 04:00:00,
2013-07-24 00:01:00,75.0,73.5,29.96,West,259,0.0,27.0,95,0.00,,---,0.00,VWS V12.08,2013-07-24 04:01:00,
2013-07-24 00:02:00,75.0,73.5,29.97,West,259,0.0,27.0,95,0.00,,---,0.00,VWS V12.08,2013-07-24 04:02:00,
2013-07-24 00:06:00,75.0,73.5,29.97,West,259,0.0,27.0,95,0.00,,---,0.00,VWS V12.08,2013-07-24 04:06:00,
2013-07-24 00:11:00,75.0,73.8,29.96,West,259,2.0,27.0,96,0.00,,---,0.00,VWS V12.08,2013-07-24 04:11:00,
2013-07-24 00:16:00,75.0,73.8,29.96,West,259,0.0,27.0,96,0.00,,---,0.00,VWS V12.08,2013-07-24 04:16:00,
2013-07-24 00:21:00,75.0,73.8,29.96,West,259,0.0,27.0,96,0.00,,---,0.00,VWS V12.08,2013-07-24 04:21:00,
2013-07-24 00:26:00,74.9,73.4,29.96,West,259,0.0,27.0,95,0.00,,---,0.00,VWS V12.08,2013-07-24 04:26:00,
2013-07-24 00:31:00,74.8,73.3,29.96,West,259,0.0,27.0,95,0.00,,---,0.00,VWS V12.08,2013-07-24 04:31:00,
2013-07-24 00:36:00,74.9,73.4,29.96,West,259,0.0,27.0,95,0.00,,---,0.00,VWS V12.08,2013-07-24 04:36:00,
2013-07-24 00:41:00,74.9,73.7,29.95,West,259,0.0,27.0,96,0.00,,---,0.00,VWS V12.08,2013-07-24 04:41:00,
2013-07-24 00:46:00,74.9,73.7,29.95,West,259,3.0,27.0,96,0.00,,---,0.00,VWS V12.08,2013-07-24 04:46:00,
2013-07-24 00:51:00,74.9,73.7,29.95,West,259,2.0,27.0,96,0.00,,---,0.00,VWS V12.08,2013-07-24 04:51:00,
2013-07-24 00:56:00,75.0,73.8,29.94,West,259,3.0,27.0,96,0.00,,---,0.00,VWS V12.08,2013-07-24 04:56:00,
2013-07-24 01:01:00,75.1,73.9,29.94,West,259,0.0,27.0,96,0.00,,---,0.00,VWS V12.08,2013-07-24 05:01:00,
2013-07-24 01:06:00,75.2,74.0,29.94,West,259,1.0,27.0,96,0.00,,---,0.00,VWS V12.08,2013-07-24 05:06:00,
2013-07-24 01:11:00,75.2,74.0,29.94,West,259,0.0,27.0,96,0.00,,---,0.00,VWS V12.08,2013-07-24 05:11:00,
2013-07-24 01:16:00,75.2,74.0,29.93,West,259,4.0,27.0,96,0.00,,---,0.00,VWS V12.08,2013-07-24 05:16:00,
2013-07-24 01:21:00,75.3,74.1,29.93,West,259,2.0,27.0,96,0.00,,---,0.00,VWS V12.08,2013-07-24 05:21:00,
2013-07-24 01:26:00,75.3,74.1,29.93,West,259,0.0,27.0,96,0.00,,---,0.00,VWS V12.08,2013-07-24 05:26:00,
2013-07-24 01:31:00,75.3,74.1,29.93,WSW,258,2.0,27.0,96,0.00,,---,0.00,VWS V12.08,2013-07-24 05:31:00,
2013-07-24 01:36:00,75.3,74.1,29.92,WSW,258,0.0,27.0,96,0.00,,---,0.00,VWS V12.08,2013-07-24 05:36:00,
2013-07-24 01:41:00,75.2,74.0,29.92,WSW,258,0.0,27.0,96,0.00,,---,0.00,VWS V12.08,2013-07-24 05:41:00,
2013-07-24 01:46:00,75.3,74.1,29.92,WSW,258,0.0,27.0,96,0.00,,---,0.00,VWS V12.08,2013-07-24 05:46:00,
2013-07-24 01:51:00,75.5,74.3,29.92,WSW,258,2.0,27.0,96,0.00,,---,0.00,VWS V12.08,2013-07-24 05:51:00,
2013-07-24 01:56:00,75.6,74.4,29.91,WSW,258,2.0,27.0,96,0.00,,---,0.00,VWS V12.08,2013-07-24 05:56:00,
2013-07-24 02:01:00,75.7,74.5,29.91,WSW,258,0.0,27.0,96,0.00,,---,0.00,VWS V12.08,2013-07-24 06:01:00,
2013-07-24 02:06:00,75.7,74.5,29.91,WSW,258,4.0,27.0,96,0.00,,---,0.00,VWS V12.08,2013-07-24 06:06:00,
2013-07-24 02:11:00,75.7,74.5,29.91,WSW,257,4.0,27.0,96,0.00,,---,0.00,VWS V12.08,2013-07-24 06:11:00,
2013-07-24 02:16:00,75.8,74.6,29.91,WSW,256,4.0,27.0,96,0.00,,---,0.00,VWS V12.08,2013-07-24 06:16:00,
2013-07-24 02:21:00,75.8,74.6,29.90,WSW,247,3.0,27.0,96,0.00,,---,0.00,VWS V12.08,2013-07-24 06:21:00,
2013-07-24 02:26:00,75.8,74.6,29.90,WSW,247,2.0,27.0,96,0.00,,---,0.00,VWS V12.08,2013-07-24 06:26:00,
2013-07-24 02:31:00,75.8,74.6,29.90,WSW,247,4.0,27.0,96,0.00,,---,0.00,VWS V12.08,2013-07-24 06:31:00,
2013-07-24 02:36:00,75.8,74.9,29.90,WSW,244,5.0,27.0,97,0.00,,---,0.00,VWS V12.08,2013-07-24 06:36:00,
2013-07-24 02:41:00,75.8,74.9,29.90,WSW,240,2.0,27.0,97,0.00,,---,0.00,VWS V12.08,2013-07-24 06:41:00,
2013-07-24 02:46:00,75.8,74.9,29.90,WSW,238,6.0,27.0,97,0.00,,---,0.00,VWS V12.08,2013-07-24 06:46:00,
2013-07-24 02:51:00,75.8,74.9,29.89,SW,234,4.0,27.0,97,0.00,,---,0.00,VWS V12.08,2013-07-24 06:51:00,
2013-07-24 02:56:00,75.8,74.9,29.89,SW,228,5.0,27.0,97,0.00,,---,0.00,VWS V12.08,2013-07-24 06:56:00,
2013-07-24 03:01:00,75.8,74.9,29.89,SW,220,2.0,27.0,97,0.00,,---,0.00,VWS V12.08,2013-07-24 07:01:00,
2013-07-24 03:06:00,75.8,74.9,29.89,SW,220,5.0,27.0,97,0.00,,---,0.00,VWS V12.08,2013-07-24 07:06:00,
2013-07-24 03:11:00,75.7,74.8,29.88,SW,220,3.0,27.0,97,0.00,,---,0.00,VWS V12.08,2013-07-24 07:11:00,
2013-07-24 03:16:00,75.8,74.9,29.88,SW,220,5.0,27.0,97,0.00,,---,0.00,VWS V12.08,2013-07-24 07:16:00,
2013-07-24 03:21:00,75.8,74.9,29.88,SW,220,1.0,27.0,97,0.00,,---,0.00,VWS V12.08,2013-07-24 07:21:00,
2013-07-24 03:26:00,75.8,74.9,29.88,SW,220,1.0,27.0,97,0.00,,---,0.00,VWS V12.08,2013-07-24 07:26:00,
2013-07-24 03:31:00,75.8,74.9,29.88,SW,221,4.0,27.0,97,0.00,,---,0.00,VWS V12.08,2013-07-24 07:31:00,
2013-07-24 03:36:00,75.8,74.9,29.88,SW,220,4.0,27.0,97,0.00,,---,0.00,VWS V12.08,2013-07-24 07:36:00,
2013-07-24 03:41:00,75.8,74.9,29.88,SW,220,7.0,27.0,97,0.00,,---,0.00,VWS V12.08,2013-07-24 07:41:00,
2013-07-24 03:46:00,75.8,74.9,29.88,SW,220,5.0,27.0,97,0.00,,---,0.00,VWS V12.08,2013-07-24 07:46:00,
2013-07-24 03:51:00,75.8,74.9,29.88,SW,220,3.0,27.0,97,0.00,,---,0.00,VWS V12.08,2013-07-24 07:51:00,
2013-07-24 03:56:00,75.8,74.9,29.88,SW,220,0.0,27.0,97,0.00,,---,0.00,VWS V12.08,2013-07-24 07:56:00,
2013-07-24 04:02:00,75.8,74.9,29.89,SW,220,3.0,27.0,97,0.00,,---,0.00,VWS V12.08,2013-07-24 08:02:00,
2013-07-24 04:07:00,75.8,74.9,29.88,SW,220,0.0,27.0,97,0.00,,---,0.00,VWS V12.08,2013-07-24 08:07:00,
2013-07-24 04:12:00,75.7,74.8,29.88,SW,220,0.0,27.0,97,0.00,,---,0.00,VWS V12.08,2013-07-24 08:12:00,
2013-07-24 04:17:00,75.8,74.9,29.87,SW,220,6.0,27.0,97,0.00,,---,0.00,VWS V12.08,2013-07-24 08:17:00,
2013-07-24 04:22:00,75.8,74.9,29.87,SW,215,3.0,27.0,97,0.00,,---,0.00,VWS V12.08,2013-07-24 08:22:00,
2013-07-24 04:27:00,75.9,75.0,29.88,SW,215,4.0,27.0,97,0.00,,---,0.00,VWS V12.08,2013-07-24 08:27:00,
2013-07-24 04:32:00,76.0,75.1,29.88,SW,219,4.0,27.0,97,0.00,,---,0.00,VWS V12.08,2013-07-24 08:32:00,
2013-07-24 04:37:00,75.9,75.0,29.88,SW,221,5.0,27.0,97,0.00,,---,0.00,VWS V12.08,2013-07-24 08:37:00,
2013-07-24 04:42:00,75.9,75.0,29.88,SW,221,3.0,27.0,97,0.00,,---,0.00,VWS V12.08,2013-07-24 08:42:00,
2013-07-24 04:47:00,75.9,75.0,29.88,SW,221,2.0,27.0,97,0.00,,---,0.00,VWS V12.08,2013-07-24 08:47:00,
2013-07-24 04:52:00,75.9,75.0,29.88,SW,221,3.0,27.0,97,0.00,,---,0.00,VWS V12.08,2013-07-24 08:52:00,
2013-07-24 04:57:00,75.9,75.0,29.88,SW,221,4.0,27.0,97,0.00,,---,0.00,VWS V12.08,2013-07-24 08:57:00,
2013-07-24 05:02:00,75.9,75.0,29.88,SW,223,3.0,27.0,97,0.00,,---,0.00,VWS V12.08,2013-07-24 09:02:00,
2013-07-24 05:07:00,75.9,74.7,29.88,SW,223,0.0,27.0,96,0.00,,---,0.00,VWS V12.08,2013-07-24 09:07:00,
2013-07-24 05:12:00,75.9,75.0,29.88,SW,223,4.0,27.0,97,0.00,,---,0.00,VWS V12.08,2013-07-24 09:12:00,
2013-07-24 05:17:00,75.9,75.0,29.89,SW,223,0.0,27.0,97,0.00,,---,0.00,VWS V12.08,2013-07-24 09:17:00,
2013-07-24 05:22:00,75.9,74.7,29.89,SW,228,4.0,27.0,96,0.00,,---,0.00,VWS V12.08,2013-07-24 09:22:00,
2013-07-24 05:27:00,76.0,74.8,29.89,SW,229,3.0,27.0,96,0.00,,---,0.00,VWS V12.08,2013-07-24 09:27:00,
2013-07-24 05:32:00,76.0,74.8,29.89,SW,229,3.0,27.0,96,0.00,,---,0.00,VWS V12.08,2013-07-24 09:32:00,
2013-07-24 05:37:00,75.9,74.7,29.89,SW,229,2.0,27.0,96,0.00,,---,0.00,VWS V12.08,2013-07-24 09:37:00,
2013-07-24 05:42:00,75.9,74.7,29.90,SW,229,0.0,27.0,96,0.00,,---,0.00,VWS V12.08,2013-07-24 09:42:00,
2013-07-24 05:47:00,75.9,74.7,29.89,SW,229,2.0,27.0,96,0.00,,---,0.00,VWS V12.08,2013-07-24 09:47:00,
2013-07-24 05:52:00,75.9,74.7,29.90,SW,229,0.0,27.0,96,0.00,,---,0.00,VWS V12.08,2013-07-24 09:52:00,
2013-07-24 05:57:00,75.9,74.7,29.89,SW,229,0.0,27.0,96,0.00,,---,0.00,VWS V12.08,2013-07-24 09:57:00,
2013-07-24 06:02:00,75.9,74.7,29.89,SW,229,0.0,27.0,96,0.00,,---,0.00,VWS V12.08,2013-07-24 10:02:00,
2013-07-24 06:07:00,75.9,74.7,29.89,SW,229,5.0,27.0,96,0.00,,---,0.00,VWS V12.08,2013-07-24 10:07:00,
2013-07-24 06:12:00,76.0,75.1,29.89,SW,229,2.0,27.0,97,0.00,,---,0.00,VWS V12.08,2013-07-24 10:12:00,
2013-07-24 06:17:00,76.0,74.8,29.89,SW,229,3.0,27.0,96,0.00,,---,0.00,VWS V12.08,2013-07-24 10:17:00,
2013-07-24 06:22:00,76.0,74.8,29.89,SW,229,0.0,27.0,96,0.00,,---,0.00,VWS V12.08,2013-07-24 10:22:00,
2013-07-24 06:27:00,76.1,74.9,29.89,SW,229,3.0,27.0,96,0.00,,---,0.00,VWS V12.08,2013-07-24 10:27:00,
2013-07-24 06:32:00,76.1,74.9,29.89,SW,229,2.0,27.0,96,0.00,,---,0.00,VWS V12.08,2013-07-24 10:32:00,
2013-07-24 06:37:00,76.2,75.0,29.90,SW,231,1.0,27.0,96,0.00,,---,0.00,VWS V12.08,2013-07-24 10:37:00,
2013-07-24 06:42:00,76.2,75.0,29.89,SW,230,4.0,27.0,96,0.00,,---,0.00,VWS V12.08,2013-07-24 10:42:00,
2013-07-24 06:47:00,76.3,75.1,29.89,SW,230,0.0,27.0,96,0.00,,---,0.00,VWS V12.08,2013-07-24 10:47:00,
2013-07-24 06:52:00,76.3,75.1,29.90,SW,230,0.0,27.0,96,0.00,,---,0.00,VWS V12.08,2013-07-24 10:52:00,
2013-07-24 06:57:00,76.3,75.1,29.89,SW,230,6.0,27.0,96,0.00,,---,0.00,VWS V12.08,2013-07-24 10:57:00,
2013-07-24 07:02:00,76.4,75.2,29.89,SW,230,3.0,27.0,96,0.00,,---,0.00,VWS V12.08,2013-07-24 11:02:00,
2013-07-24 07:07:00,76.4,75.2,29.90,SW,230,3.0,27.0,96,0.00,,---,0.00,VWS V12.08,2013-07-24 11:07:00,
2013-07-24 07:12:00,76.4,75.5,29.90,SW,230,2.0,27.0,97,0.00,,---,0.00,VWS V12.08,2013-07-24 11:12:00,
2013-07-24 07:17:00,76.5,75.6,29.90,SW,230,4.0,27.0,97,0.00,,---,0.00,VWS V12.08,2013-07-24 11:17:00,
2013-07-24 07:22:00,76.6,75.7,29.90,SW,230,4.0,27.0,97,0.00,,---,0.00,VWS V12.08,2013-07-24 11:22:00,
2013-07-24 07:27:00,76.7,75.8,29.90,SW,230,4.0,27.0,97,0.00,,---,0.00,VWS V12.08,2013-07-24 11:27:00,
2013-07-24 07:32:00,76.9,76.0,29.90,SW,236,2.0,27.0,97,0.00,,---,0.00,VWS V12.08,2013-07-24 11:32:00,
2013-07-24 07:38:00,77.1,76.2,29.90,SW,230,4.0,27.0,97,0.00,,---,0.00,VWS V12.08,2013-07-24 11:38:00,
2013-07-24 07:43:00,77.3,76.1,29.90,SW,236,4.0,27.0,96,0.00,,---,0.00,VWS V12.08,2013-07-24 11:43:00,
2013-07-24 07:48:00,77.4,76.2,29.90,WSW,237,5.0,27.0,96,0.00,,---,0.00,VWS V12.08,2013-07-24 11:48:00,
2013-07-24 07:53:00,77.6,76.4,29.91,SW,236,3.0,27.0,96,0.00,,---,0.00,VWS V12.08,2013-07-24 11:53:00,
2013-07-24 07:58:00,77.8,76.6,29.91,SW,234,5.0,27.0,96,0.00,,---,0.00,VWS V12.08,2013-07-24 11:58:00,
2013-07-24 08:03:00,77.9,76.7,29.91,SW,233,6.0,27.0,96,0.00,,---,0.00,VWS V12.08,2013-07-24 12:03:00,
2013-07-24 08:08:00,78.0,76.8,29.92,SW,234,5.0,27.0,96,0.00,,---,0.00,VWS V12.08,2013-07-24 12:08:00,
2013-07-24 08:13:00,78.3,77.1,29.92,SW,232,3.0,27.0,96,0.00,,---,0.00,VWS V12.08,2013-07-24 12:13:00,
2013-07-24 08:18:00,78.5,77.3,29.91,SW,232,5.0,27.0,96,0.00,,---,0.00,VWS V12.08,2013-07-24 12:18:00,
2013-07-24 08:23:00,78.7,77.5,29.92,SW,232,4.0,27.0,96,0.00,,---,0.00,VWS V12.08,2013-07-24 12:23:00,
2013-07-24 08:28:00,78.8,77.6,29.92,SW,232,4.0,27.0,96,0.00,,---,0.00,VWS V12.08,2013-07-24 12:28:00,
2013-07-24 08:33:00,79.0,77.8,29.92,SW,231,5.0,27.0,96,0.00,,---,0.00,VWS V12.08,2013-07-24 12:33:00,
2013-07-24 08:38:00,79.3,77.8,29.92,SW,231,5.0,27.0,95,0.00,,---,0.00,VWS V12.08,2013-07-24 12:38:00,
2013-07-24 08:43:00,79.6,78.4,29.93,SW,228,10.0,27.0,96,0.00,,---,0.00,VWS V12.08,2013-07-24 12:43:00,
2013-07-24 08:48:00,79.9,78.3,29.93,WSW,243,3.0,27.0,95,0.00,,---,0.00,VWS V12.08,2013-07-24 12:48:00,
2013-07-24 08:53:00,80.0,78.1,29.92,WSW,256,5.0,27.0,94,0.00,,---,0.00,VWS V12.08,2013-07-24 12:53:00,
2013-07-24 08:58:00,80.3,78.4,29.93,WSW,253,3.0,27.0,94,0.00,,---,0.00,VWS V12.08,2013-07-24 12:58:00,
2013-07-24 09:03:00,80.2,78.0,29.92,WSW,246,2.0,27.0,93,0.00,,---,0.00,VWS V12.08,2013-07-24 13:03:00,
2013-07-24 09:08:00,80.1,77.9,29.92,WSW,246,4.0,27.0,93,0.00,,---,0.00,VWS V12.08,2013-07-24 13:08:00,
2013-07-24 09:13:00,80.2,78.3,29.92,WSW,237,6.0,27.0,94,0.00,,---,0.00,VWS V12.08,2013-07-24 13:13:00,
2013-07-24 09:18:00,80.2,78.0,29.92,WSW,240,0.0,27.0,93,0.00,,---,0.00,VWS V12.08,2013-07-24 13:18:00,
2013-07-24 09:23:00,80.2,78.0,29.93,WSW,240,0.0,27.0,93,0.00,,---,0.00,VWS V12.08,2013-07-24 13:23:00,
2013-07-24 09:28:00,80.4,78.2,29.93,WNW,298,2.0,27.0,93,0.00,,---,0.00,VWS V12.08,2013-07-24 13:28:00,
2013-07-24 09:33:00,80.6,78.4,29.93,WSW,254,2.0,27.0,93,0.00,,---,0.00,VWS V12.08,2013-07-24 13:33:00,
2013-07-24 09:38:00,80.5,78.3,29.93,WSW,254,2.0,27.0,93,0.00,,---,0.00,VWS V12.08,2013-07-24 13:38:00,
2013-07-24 09:43:00,80.5,78.3,29.93,WSW,252,7.0,27.0,93,0.00,,---,0.00,VWS V12.08,2013-07-24 13:43:00,
2013-07-24 09:48:00,79.9,77.4,29.93,WSW,250,2.0,27.0,92,0.00,,---,0.00,VWS V12.08,2013-07-24 13:48:00,
2013-07-24 09:53:00,79.9,77.7,29.93,WSW,252,0.0,27.0,93,0.00,,---,0.00,VWS V12.08,2013-07-24 13:53:00,
2013-07-24 09:58:00,80.3,78.4,29.94,WSW,252,1.0,27.0,94,0.00,,---,0.00,VWS V12.08,2013-07-24 13:58:00,
2013-07-24 10:03:00,80.8,78.3,29.93,WNW,289,5.0,27.0,92,0.00,,---,0.00,VWS V12.08,2013-07-24 14:03:00,
2013-07-24 10:08:00,81.4,78.9,29.93,West,261,0.0,27.0,92,0.00,,---,0.00,VWS V12.08,2013-07-24 14:08:00,
2013-07-24 10:13:00,81.9,79.0,29.93,WSW,252,1.0,27.0,91,0.00,,---,0.00,VWS V12.08,2013-07-24 14:13:00,
2013-07-24 10:18:00,82.3,79.4,29.93,West,262,1.0,27.0,91,0.00,,---,0.00,VWS V12.08,2013-07-24 14:18:00,
2013-07-24 10:23:00,82.5,78.9,29.93,West,273,11.0,27.0,89,0.00,,---,0.00,VWS V12.08,2013-07-24 14:23:00,
2013-07-24 10:28:00,82.6,79.0,29.93,WNW,292,7.0,27.0,89,0.00,,---,0.00,VWS V12.08,2013-07-24 14:28:00,
2013-07-24 10:33:00,82.5,78.6,29.92,WSW,250,4.0,27.0,88,0.00,,---,0.00,VWS V12.08,2013-07-24 14:33:00,
2013-07-24 10:38:00,82.5,78.6,29.92,WNW,287,6.0,27.0,88,0.00,,---,0.00,VWS V12.08,2013-07-24 14:38:00,
2013-07-24 10:43:00,82.8,78.9,29.92,WNW,283,0.0,27.0,88,0.00,,---,0.00,VWS V12.08,2013-07-24 14:43:00,
2013-07-24 10:48:00,82.7,77.7,29.93,NW,320,6.0,27.0,85,0.00,,---,0.00,VWS V12.08,2013-07-24 14:48:00,
2013-07-24 10:53:00,82.6,77.6,29.92,WSW,258,11.0,27.0,85,0.00,,---,0.00,VWS V12.08,2013-07-24 14:53:00,
2013-07-24 10:58:00,82.3,76.6,29.92,WNW,301,6.0,27.0,83,0.00,,---,0.00,VWS V12.08,2013-07-24 14:58:00,
2013-07-24 11:03:00,82.0,76.3,29.93,West,261,4.0,27.0,83,0.00,,---,0.00,VWS V12.08,2013-07-24 15:03:00,
2013-07-24 11:08:00,82.2,76.9,29.93,WSW,253,5.0,27.0,84,0.00,,---,0.00,VWS V12.08,2013-07-24 15:08:00,
2013-07-24 11:13:00,82.7,76.7,29.93,West,266,1.0,27.0,82,0.00,,---,0.00,VWS V12.08,2013-07-24 15:13:00,
2013-07-24 11:18:00,82.9,76.1,29.93,WNW,296,2.0,27.0,80,0.00,,---,0.00,VWS V12.08,2013-07-24 15:18:00,
2013-07-24 11:23:00,83.1,76.7,29.93,West,269,2.0,27.0,81,0.00,,---,0.00,VWS V12.08,2013-07-24 15:23:00,
2013-07-24 11:28:00,83.6,77.2,29.93,WSW,251,5.0,27.0,81,0.00,,---,0.00,VWS V12.08,2013-07-24 15:28:00,
2013-07-24 11:33:00,84.0,76.8,29.94,WSW,252,3.0,27.0,79,0.00,,---,0.00,VWS V12.08,2013-07-24 15:33:00,
2013-07-24 11:38:00,84.2,77.4,29.94,NW,304,1.0,27.0,80,0.00,,---,0.00,VWS V12.08,2013-07-24 15:38:00,
2013-07-24 11:43:00,84.5,77.7,29.94,WSW,254,0.0,27.0,80,0.00,,---,0.00,VWS V12.08,2013-07-24 15:43:00,
2013-07-24 11:48:00,84.8,77.9,29.93,West,280,11.0,27.0,80,0.00,,---,0.00,VWS V12.08,2013-07-24 15:48:00,
2013-07-24 11:53:00,85.1,79.0,29.93,WSW,250,4.0,27.0,82,0.00,,---,0.00,VWS V12.08,2013-07-24 15:53:00,
2013-07-24 11:58:00,85.7,78.8,29.93,WSW,250,4.0,27.0,80,0.00,,---,0.00,VWS V12.08,2013-07-24 15:58:00,
2013-07-24 12:03:00,85.8,78.5,29.93,WSW,251,11.0,27.0,79,0.00,,---,0.00,VWS V12.08,2013-07-24 16:03:00,
2013-07-24 12:08:00,85.2,77.9,29.92,WSW,257,6.0,27.0,79,0.00,,---,0.00,VWS V12.08,2013-07-24 16:08:00,
2013-07-24 12:13:00,83.6,75.6,29.93,SW,234,11.0,27.0,77,0.00,,---,0.00,VWS V12.08,2013-07-24 16:13:00,
2013-07-24 12:19:00,80.9,75.3,29.95,West,275,13.0,27.0,83,0.00,,---,0.00,VWS V12.08,2013-07-24 16:19:00,
2013-07-24 12:24:00,79.1,74.6,29.94,NW,306,4.0,27.0,86,0.00,,---,0.00,VWS V12.08,2013-07-24 16:24:00,
2013-07-24 12:29:00,78.2,74.4,29.95,NW,325,4.0,27.0,88,0.00,,---,0.00,VWS V12.08,2013-07-24 16:29:00,
2013-07-24 12:34:00,77.4,73.9,29.96,NW,313,6.0,27.0,89,0.00,,---,0.00,VWS V12.08,2013-07-24 16:34:00,
2013-07-24 12:39:00,76.7,73.6,29.96,NW,319,9.0,27.0,90,0.00,,---,0.00,VWS V12.08,2013-07-24 16:39:00,
2013-07-24 12:44:00,75.9,73.1,29.96,NNW,332,7.0,27.0,91,0.00,,---,0.00,VWS V12.08,2013-07-24 16:44:00,
2013-07-24 12:49:00,75.1,72.3,29.97,NW,304,6.0,27.0,91,0.00,,---,0.00,VWS V12.08,2013-07-24 16:49:00,
2013-07-24 12:54:00,74.5,72.0,29.98,NW,313,8.0,27.0,92,0.00,,---,0.00,VWS V12.08,2013-07-24 16:54:00,
2013-07-24 12:59:00,74.2,72.1,29.96,NW,323,0.0,27.0,93,0.00,,---,0.00,VWS V12.08,2013-07-24 16:59:00,
2013-07-24 13:04:00,73.9,71.8,29.95,NW,323,0.0,27.0,93,0.00,,---,0.00,VWS V12.08,2013-07-24 17:04:00,
2013-07-24 13:09:00,73.8,71.7,29.94,NW,323,0.0,27.0,93,0.00,,---,0.00,VWS V12.08,2013-07-24 17:09:00,
2013-07-24 13:14:00,73.8,72.0,29.94,NW,323,0.0,27.0,94,0.00,,---,0.00,VWS V12.08,2013-07-24 17:14:00,
2013-07-24 13:19:00,73.7,71.9,29.94,NW,323,0.0,27.0,94,0.00,,---,0.00,VWS V12.08,2013-07-24 17:19:00,
2013-07-24 13:24:00,73.5,71.7,29.94,NW,322,4.0,27.0,94,0.00,,---,0.00,VWS V12.08,2013-07-24 17:24:00,
2013-07-24 13:29:00,73.5,71.7,29.94,NW,308,4.0,27.0,94,0.00,,---,0.00,VWS V12.08,2013-07-24 17:29:00,
2013-07-24 13:34:00,73.5,72.0,29.93,WNW,297,5.0,27.0,95,0.00,,---,0.00,VWS V12.08,2013-07-24 17:34:00,
2013-07-24 13:39:00,73.6,72.1,29.93,WNW,282,5.0,27.0,95,0.00,,---,0.00,VWS V12.08,2013-07-24 17:39:00,
2013-07-24 13:44:00,73.7,72.2,29.92,West,269,5.0,27.0,95,0.00,,---,0.00,VWS V12.08,2013-07-24 17:44:00,
2013-07-24 13:49:00,73.8,72.3,29.92,West,269,0.0,27.0,95,0.00,,---,0.00,VWS V12.08,2013-07-24 17:49:00,
2013-07-24 13:54:00,73.9,72.4,29.92,West,269,0.0,27.0,95,0.00,,---,0.00,VWS V12.08,2013-07-24 17:54:00,
2013-07-24 13:59:00,73.9,72.4,29.92,West,269,0.0,27.0,95,0.00,,---,0.00,VWS V12.08,2013-07-24 17:59:00,
2013-07-24 14:04:00,73.9,72.4,29.92,West,269,0.0,27.0,95,0.00,,---,0.00,VWS V12.08,2013-07-24 18:04:00,
2013-07-24 14:09:00,74.0,72.5,29.91,West,269,0.0,27.0,95,0.00,,---,0.00,VWS V12.08,2013-07-24 18:09:00,
2013-07-24 14:14:00,74.2,72.7,29.91,West,269,0.0,27.0,95,0.00,,---,0.00,VWS V12.08,2013-07-24 18:14:00,
2013-07-24 14:19:00,74.4,73.2,29.91,West,269,0.0,27.0,96,0.00,,---,0.00,VWS V12.08,2013-07-24 18:19:00,
2013-07-24 14:24:00,74.7,73.2,29.91,West,259,3.0,27.0,95,0.00,,---,0.00,VWS V12.08,2013-07-24 18:24:00,
2013-07-24 14:29:00,75.0,73.5,29.90,WSW,257,2.0,27.0,95,0.00,,---,0.00,VWS V12.08,2013-07-24 18:29:00,
2013-07-24 14:34:00,75.1,73.6,29.91,WSW,257,0.0,27.0,95,0.00,,---,0.00,VWS V12.08,2013-07-24 18:34:00,
2013-07-24 14:39:00,75.3,73.5,29.91,WSW,257,1.0,27.0,94,0.00,,---,0.00,VWS V12.08,2013-07-24 18:39:00,
2013-07-24 14:44:00,75.6,73.8,29.91,WSW,256,0.0,27.0,94,0.00,,---,0.00,VWS V12.08,2013-07-24 18:44:00,
2013-07-24 14:49:00,75.9,74.1,29.91,WSW,250,0.0,27.0,94,0.00,,---,0.00,VWS V12.08,2013-07-24 18:49:00,
2013-07-24 14:54:00,76.0,73.8,29.90,WSW,250,0.0,27.0,93,0.00,,---,0.00,VWS V12.08,2013-07-24 18:54:00,
2013-07-24 14:59:00,76.0,73.5,29.90,WSW,248,0.0,27.0,92,0.00,,---,0.00,VWS V12.08,2013-07-24 18:59:00,
2013-07-24 15:04:00,76.1,73.6,29.90,WSW,248,0.0,27.0,92,0.00,,---,0.00,VWS V12.08,2013-07-24 19:04:00,
2013-07-24 15:09:00,76.2,73.4,29.90,WSW,248,0.0,27.0,91,0.00,,---,0.00,VWS V12.08,2013-07-24 19:09:00,
2013-07-24 15:14:00,76.4,73.9,29.90,WSW,248,0.0,27.0,92,0.00,,---,0.00,VWS V12.08,2013-07-24 19:14:00,
2013-07-24 15:19:00,76.6,74.1,29.90,WSW,248,1.0,27.0,92,0.00,,---,0.00,VWS V12.08,2013-07-24 19:19:00,
2013-07-24 15:24:00,76.7,73.9,29.90,SW,231,1.0,27.0,91,0.00,,---,0.00,VWS V12.08,2013-07-24 19:24:00,
2013-07-24 15:29:00,77.0,74.2,29.90,SW,231,7.0,27.0,91,0.00,,---,0.00,VWS V12.08,2013-07-24 19:29:00,
2013-07-24 15:34:00,77.2,74.4,29.89,SW,230,0.0,27.0,91,0.00,,---,0.00,VWS V12.08,2013-07-24 19:34:00,
2013-07-24 15:39:00,77.7,74.9,29.89,SW,236,4.0,27.0,91,0.00,,---,0.00,VWS V12.08,2013-07-24 19:39:00,
2013-07-24 15:44:00,78.4,75.6,29.89,SW,232,5.0,27.0,91,0.00,,---,0.00,VWS V12.08,2013-07-24 19:44:00,
2013-07-24 15:49:00,78.9,75.7,29.89,SW,230,4.0,27.0,90,0.00,,---,0.00,VWS V12.08,2013-07-24 19:49:00,
2013-07-24 15:54:00,79.7,75.8,29.88,SW,219,7.0,27.0,88,0.00,,---,0.00,VWS V12.08,2013-07-24 19:54:00,
2013-07-24 15:59:00,80.2,76.3,29.88,SW,232,6.0,27.0,88,0.00,,---,0.00,VWS V12.08,2013-07-24 19:59:00,
2013-07-24 16:04:00,80.5,76.3,29.88,SW,221,6.0,27.0,87,0.00,,---,0.00,VWS V12.08,2013-07-24 20:04:00,
2013-07-24 16:09:00,80.7,75.8,29.87,SW,222,6.0,27.0,85,0.00,,---,0.00,VWS V12.08,2013-07-24 20:09:00,
2013-07-24 16:14:00,80.7,76.1,29.87,WSW,239,4.0,27.0,86,0.00,,---,0.00,VWS V12.08,2013-07-24 20:14:00,
2013-07-24 16:20:00,81.0,76.4,29.86,SW,232,4.0,27.0,86,0.00,,---,0.00,VWS V12.08,2013-07-24 20:20:00,
2013-07-24 16:25:00,81.4,77.2,29.86,SW,233,2.0,27.0,87,0.00,,---,0.00,VWS V12.08,2013-07-24 20:25:00,
2013-07-24 16:30:00,82.0,77.4,29.86,WSW,248,3.0,27.0,86,0.00,,---,0.00,VWS V12.08,2013-07-24 20:30:00,
2013-07-24 16:35:00,82.5,77.5,29.85,West,280,4.0,27.0,85,0.00,,---,0.00,VWS V12.08,2013-07-24 20:35:00,
2013-07-24 16:40:00,83.0,78.0,29.85,WSW,246,10.0,27.0,85,0.00,,---,0.00,VWS V12.08,2013-07-24 20:40:00,
2013-07-24 16:45:00,83.6,78.6,29.85,West,262,7.0,27.0,85,0.00,,---,0.00,VWS V12.08,2013-07-24 20:45:00,
2013-07-24 16:50:00,83.9,78.6,29.85,WSW,238,7.0,27.0,84,0.00,,---,0.00,VWS V12.08,2013-07-24 20:50:00,
2013-07-24 16:55:00,84.4,78.7,29.85,SW,234,10.0,27.0,83,0.00,,---,0.00,VWS V12.08,2013-07-24 20:55:00,
2013-07-24 17:00:00,84.9,78.8,29.85,WSW,238,10.0,27.0,82,0.00,,---,0.00,VWS V12.08,2013-07-24 21:00:00,
2013-07-24 17:05:00,84.8,78.7,29.85,WNW,294,7.0,27.0,82,0.00,,---,0.00,VWS V12.08,2013-07-24 21:05:00,
2013-07-24 17:10:00,84.8,78.7,29.85,WSW,240,4.0,27.0,82,0.00,,---,0.00,VWS V12.08,2013-07-24 21:10:00,
2013-07-24 17:15:00,85.3,78.8,29.85,WSW,248,4.0,27.0,81,0.00,,---,0.00,VWS V12.08,2013-07-24 21:15:00,
2013-07-24 17:20:00,85.7,79.2,29.85,WSW,243,6.0,27.0,81,0.00,,---,0.00,VWS V12.08,2013-07-24 21:20:00,
2013-07-24 17:25:00,86.0,79.1,29.85,WSW,253,5.0,27.0,80,0.00,,---,0.00,VWS V12.08,2013-07-24 21:25:00,
2013-07-24 17:30:00,86.0,79.1,29.84,SW,235,10.0,27.0,80,0.00,,---,0.00,VWS V12.08,2013-07-24 21:30:00,
2013-07-24 17:35:00,85.9,79.0,29.85,West,277,6.0,27.0,80,0.00,,---,0.00,VWS V12.08,2013-07-24 21:35:00,
2013-07-24 17:40:00,85.8,78.9,29.85,West,279,1.0,27.0,80,0.00,,---,0.00,VWS V12.08,2013-07-24 21:40:00,
2013-07-24 17:45:00,85.8,78.9,29.84,WSW,241,5.0,27.0,80,0.00,,---,0.00,VWS V12.08,2013-07-24 21:45:00,
2013-07-24 17:50:00,85.8,78.9,29.84,WSW,245,11.0,27.0,80,0.00,,---,0.00,VWS V12.08,2013-07-24 21:50:00,
2013-07-24 17:55:00,85.8,78.5,29.85,WSW,246,8.0,27.0,79,0.00,,---,0.00,VWS V12.08,2013-07-24 21:55:00,
2013-07-24 18:00:00,85.7,78.4,29.85,WSW,247,5.0,27.0,79,0.00,,---,0.00,VWS V12.08,2013-07-24 22:00:00,
2013-07-24 18:05:00,85.5,78.6,29.84,WSW,240,6.0,27.0,80,0.00,,---,0.00,VWS V12.08,2013-07-24 22:05:00,
2013-07-24 18:10:00,85.3,78.4,29.84,West,261,3.0,27.0,80,0.00,,---,0.00,VWS V12.08,2013-07-24 22:10:00,
2013-07-24 18:15:00,85.2,78.7,29.84,WSW,250,0.0,27.0,81,0.00,,---,0.00,VWS V12.08,2013-07-24 22:15:00,
2013-07-24 18:20:00,85.0,78.5,29.84,West,263,0.0,27.0,81,0.00,,---,0.00,VWS V12.08,2013-07-24 22:20:00,
2013-07-24 18:25:00,84.8,78.7,29.84,WSW,250,4.0,27.0,82,0.00,,---,0.00,VWS V12.08,2013-07-24 22:25:00,
2013-07-24 18:30:00,84.7,78.6,29.84,West,262,8.0,27.0,82,0.00,,---,0.00,VWS V12.08,2013-07-24 22:30:00,
2013-07-24 18:35:00,84.7,78.6,29.85,WSW,247,5.0,27.0,82,0.00,,---,0.00,VWS V12.08,2013-07-24 22:35:00,
2013-07-24 18:40:00,84.7,78.6,29.85,WSW,253,4.0,27.0,82,0.00,,---,0.00,VWS V12.08,2013-07-24 22:40:00,
2013-07-24 18:45:00,84.7,78.6,29.85,WSW,251,0.0,27.0,82,0.00,,---,0.00,VWS V12.08,2013-07-24 22:45:00,
2013-07-24 18:50:00,84.6,78.5,29.85,WSW,254,8.0,27.0,82,0.00,,---,0.00,VWS V12.08,2013-07-24 22:50:00,
2013-07-24 18:55:00,84.3,78.2,29.85,West,259,4.0,27.0,82,0.00,,---,0.00,VWS V12.08,2013-07-24 22:55:00,
2013-07-24 19:00:00,84.1,78.0,29.85,WSW,245,6.0,27.0,82,0.00,,---,0.00,VWS V12.08,2013-07-24 23:00:00,
2013-07-24 19:05:00,84.0,77.9,29.86,WNW,287,7.0,27.0,82,0.00,,---,0.00,VWS V12.08,2013-07-24 23:05:00,
2013-07-24 19:10:00,83.7,78.0,29.86,West,269,0.0,27.0,83,0.00,,---,0.00,VWS V12.08,2013-07-24 23:10:00,
2013-07-24 19:15:00,83.4,78.4,29.86,West,279,0.0,27.0,85,0.00,,---,0.00,VWS V12.08,2013-07-24 23:15:00,
2013-07-24 19:20:00,82.8,78.5,29.86,West,279,0.0,27.0,87,0.00,,---,0.00,VWS V12.08,2013-07-24 23:20:00,
2013-07-24 19:25:00,82.5,78.6,29.86,West,279,0.0,27.0,88,0.00,,---,0.00,VWS V12.08,2013-07-24 23:25:00,
2013-07-24 19:30:00,82.2,78.3,29.86,West,279,0.0,27.0,88,0.00,,---,0.00,VWS V12.08,2013-07-24 23:30:00,
2013-07-24 19:35:00,81.9,78.0,29.87,NW,307,7.0,27.0,88,0.00,,---,0.00,VWS V12.08,2013-07-24 23:35:00,
2013-07-24 19:40:00,81.6,77.4,29.87,West,261,7.0,27.0,87,0.00,,---,0.00,VWS V12.08,2013-07-24 23:40:00,
2013-07-24 19:45:00,81.3,77.1,29.88,WSW,252,0.0,27.0,87,0.00,,---,0.00,VWS V12.08,2013-07-24 23:45:00,
2013-07-24 19:50:00,81.3,77.1,29.87,WSW,257,4.0,27.0,87,0.00,,---,0.00,VWS V12.08,2013-07-24 23:50:00,
2013-07-24 19:56:00,81.3,77.1,29.87,WSW,258,4.0,27.0,87,0.00,,---,0.00,VWS V12.08,2013-07-24 23:56:00,
2013-07-24 20:01:00,81.4,77.2,29.87,WSW,257,3.0,27.0,87,0.00,,---,0.00,VWS V12.08,2013-07-25 00:01:00,
2013-07-24 20:06:00,81.4,77.2,29.87,West,263,4.0,27.0,87,0.00,,---,0.00,VWS V12.08,2013-07-25 00:06:00,
2013-07-24 20:11:00,81.5,77.3,29.87,WSW,248,6.0,27.0,87,0.00,,---,0.00,VWS V12.08,2013-07-25 00:11:00,
2013-07-24 20:16:00,81.6,77.4,29.87,WSW,250,2.0,27.0,87,0.00,,---,0.00,VWS V12.08,2013-07-25 00:16:00,
2013-07-24 20:21:00,81.6,77.4,29.88,WSW,250,3.0,27.0,87,0.00,,---,0.00,VWS V12.08,2013-07-25 00:21:00,
2013-07-24 20:26:00,81.5,77.3,29.87,WSW,246,3.0,27.0,87,0.00,,---,0.00,VWS V12.08,2013-07-25 00:26:00,
2013-07-24 20:31:00,81.4,77.5,29.87,WSW,246,0.0,27.0,88,0.00,,---,0.00,VWS V12.08,2013-07-25 00:31:00,
2013-07-24 20:36:00,81.3,77.4,29.87,WSW,246,5.0,27.0,88,0.00,,---,0.00,VWS V12.08,2013-07-25 00:36:00,
2013-07-24 20:41:00,81.2,77.3,29.88,WSW,246,0.0,27.0,88,0.00,,---,0.00,VWS V12.08,2013-07-25 00:41:00,
2013-07-24 20:46:00,81.1,77.2,29.87,WSW,246,1.0,27.0,88,0.00,,---,0.00,VWS V12.08,2013-07-25 00:46:00,
2013-07-24 20:51:00,81.1,77.6,29.87,WSW,241,5.0,27.0,89,0.00,,---,0.00,VWS V12.08,2013-07-25 00:51:00,
2013-07-24 20:56:00,81.1,77.6,29.86,WSW,241,5.0,27.0,89,0.00,,---,0.00,VWS V12.08,2013-07-25 00:56:00,
2013-07-24 21:01:00,81.0,77.5,29.87,WSW,242,5.0,27.0,89,0.00,,---,0.00,VWS V12.08,2013-07-25 01:01:00,
2013-07-24 21:06:00,80.9,77.4,29.86,WSW,243,5.0,27.0,89,0.00,,---,0.00,VWS V12.08,2013-07-25 01:06:00,
2013-07-24 21:11:00,80.8,77.3,29.87,WSW,244,7.0,27.0,89,0.00,,---,0.00,VWS V12.08,2013-07-25 01:11:00,
2013-07-24 21:16:00,80.8,77.3,29.87,WSW,242,3.0,27.0,89,0.00,,---,0.00,VWS V12.08,2013-07-25 01:16:00,
2013-07-24 21:21:00,80.7,77.2,29.87,WSW,240,6.0,27.0,89,0.00,,---,0.00,VWS V12.08,2013-07-25 01:21:00,
2013-07-24 21:26:00,80.7,77.2,29.87,WSW,240,2.0,27.0,89,0.00,,---,0.00,VWS V12.08,2013-07-25 01:26:00,
2013-07-24 21:32:00,80.6,77.1,29.88,WSW,240,6.0,27.0,89,0.00,,---,0.00,VWS V12.08,2013-07-25 01:32:00,
2013-07-24 21:37:00,80.4,77.2,29.88,WSW,240,6.0,27.0,90,0.00,,---,0.00,VWS V12.08,2013-07-25 01:37:00,
2013-07-24 21:42:00,80.3,77.1,29.88,WSW,240,0.0,27.0,90,0.00,,---,0.00,VWS V12.08,2013-07-25 01:42:00,
2013-07-24 21:47:00,80.2,77.0,29.88,WSW,240,2.0,27.0,90,0.00,,---,0.00,VWS V12.08,2013-07-25 01:47:00,
2013-07-24 21:52:00,80.2,77.0,29.88,WSW,240,3.0,27.0,90,0.00,,---,0.00,VWS V12.08,2013-07-25 01:52:00,
2013-07-24 21:57:00,80.1,76.9,29.88,WSW,240,5.0,27.0,90,0.00,,---,0.00,VWS V12.08,2013-07-25 01:57:00,
2013-07-24 22:02:00,80.0,77.1,29.88,WSW,240,5.0,27.0,91,0.00,,---,0.00,VWS V12.08,2013-07-25 02:02:00,
2013-07-24 22:07:00,80.0,77.1,29.88,WSW,240,1.0,27.0,91,0.00,,---,0.00,VWS V12.08,2013-07-25 02:07:00,
2013-07-24 22:12:00,79.9,77.0,29.88,WSW,240,3.0,27.0,91,0.00,,---,0.00,VWS V12.08,2013-07-25 02:12:00,
2013-07-24 22:17:00,79.8,76.9,29.88,WSW,240,3.0,27.0,91,0.00,,---,0.00,VWS V12.08,2013-07-25 02:17:00,
2013-07-24 22:22:00,79.8,76.9,29.88,WSW,240,4.0,27.0,91,0.00,,---,0.00,VWS V12.08,2013-07-25 02:22:00,
2013-07-24 22:27:00,79.7,76.8,29.88,WSW,240,6.0,27.0,91,0.00,,---,0.00,VWS V12.08,2013-07-25 02:27:00,
2013-07-24 22:32:00,79.7,77.2,29.88,WSW,238,4.0,27.0,92,0.00,,---,0.00,VWS V12.08,2013-07-25 02:32:00,
2013-07-24 22:37:00,79.7,77.2,29.88,WSW,238,4.0,27.0,92,0.00,,---,0.00,VWS V12.08,2013-07-25 02:37:00,
2013-07-24 22:42:00,79.6,77.1,29.88,SW,236,3.0,27.0,92,0.00,,---,0.00,VWS V12.08,2013-07-25 02:42:00,
2013-07-24 22:47:00,79.6,77.1,29.88,SW,236,3.0,27.0,92,0.00,,---,0.00,VWS V12.08,2013-07-25 02:47:00,
2013-07-24 22:52:00,79.5,77.0,29.88,SW,236,4.0,27.0,92,0.00,,---,0.00,VWS V12.08,2013-07-25 02:52:00,
2013-07-24 22:57:00,79.4,76.9,29.88,SW,236,5.0,27.0,92,0.00,,---,0.00,VWS V12.08,2013-07-25 02:57:00,
2013-07-24 23:02:00,79.4,76.9,29.88,WSW,237,5.0,27.0,92,0.00,,---,0.00,VWS V12.08,2013-07-25 03:02:00,
2013-07-24 23:03:00,79.4,76.9,29.88,WSW,237,5.0,27.0,92,0.00,,---,0.00,VWS V12.08,2013-07-25 03:03:00,
2013-07-24 23:08:00,79.3,76.8,29.88,SW,236,5.0,27.0,92,0.00,,---,0.00,VWS V12.08,2013-07-25 03:08:00,
2013-07-24 23:13:00,79.3,76.8,29.88,WSW,237,3.0,27.0,92,0.00,,---,0.00,VWS V12.08,2013-07-25 03:13:00,
2013-07-24 23:18:00,79.2,76.7,29.88,WSW,237,3.0,27.0,92,0.00,,---,0.00,VWS V12.08,2013-07-25 03:18:00,
2013-07-24 23:23:00,79.2,76.7,29.88,WSW,238,2.0,27.0,92,0.00,,---,0.00,VWS V12.08,2013-07-25 03:23:00,
2013-07-24 23:29:00,79.2,76.7,29.88,WSW,238,1.0,27.0,92,0.00,,---,0.00,VWS V12.08,2013-07-25 03:29:00,
2013-07-24 23:34:00,79.1,76.9,29.88,WSW,238,2.0,27.0,93,0.00,,---,0.00,VWS V12.08,2013-07-25 03:34:00,
2013-07-24 23:39:00,79.1,76.9,29.88,WSW,238,3.0,27.0,93,0.00,,---,0.00,VWS V12.08,2013-07-25 03:39:00,
2013-07-24 23:44:00,79.1,76.9,29.88,WSW,238,3.0,27.0,93,0.00,,---,0.00,VWS V12.08,2013-07-25 03:44:00,
2013-07-24 23:49:00,79.1,76.9,29.88,WSW,238,4.0,27.0,93,0.00,,---,0.00,VWS V12.08,2013-07-25 03:49:00,
2013-07-24 23:54:00,79.1,76.9,29.88,SW,236,1.0,27.0,93,0.00,,---,0.00,VWS V12.08,2013-07-25 03:54:00,
2013-07-24 23:59:00,79.1,76.9,29.88,SW,236,4.0,27.0,93,0.00,,---,0.00,VWS V12.08,2013-07-25 03:59:00,